Location: Laguna de la Cañada del Gallo
(40.3974°N, 5.2096°W)
Time: 00:37:03
(UTC+00:00)

Envisat - Visible Passes

Search period start: 21 June 2024 00:00
Search period end: 01 July 2024 00:00
Orbit: 762 x 764 km, 98.3° (Epoch: 20 June)

Date Brightness Start Highest point End Pass type
(mag) Time Alt. Az. Time Alt. Az. Time Alt. Az.
21 Jun 3.5 03:20:57 10° NNE 03:25:57 58° E 03:30:56 10° S visible
22 Jun 4.8 02:44:14 10° NE 02:48:24 25° E 02:52:32 10° SSE visible
23 Jun 5.7 02:09:37 10° ENE 02:10:38 11° E 02:11:39 10° E visible
23 Jun 3.0 03:45:06 10° NNE 03:50:12 83° WNW 03:55:15 10° SSW visible
24 Jun 4.0 03:07:56 10° NNE 03:12:46 43° E 03:17:34 10° S visible
25 Jun 5.2 02:31:34 10° NE 02:35:08 19° E 02:38:42 10° SE visible
25 Jun 3.4 04:09:28 10° N 04:14:21 48° WNW 04:19:12 10° SW visible
26 Jun 3.2 03:31:58 10° NNE 03:37:03 75° ESE 03:42:06 10° S visible
27 Jun 4.4 02:55:01 10° NNE 02:59:34 32° E 03:04:05 10° SSE visible
28 Jun 5.4 02:19:12 10° ENE 02:21:52 14° E 02:24:30 10° ESE visible
28 Jun 3.1 03:56:14 10° N 04:01:15 64° WNW 04:06:15 10° SSW visible
29 Jun 3.5 03:18:54 10° NNE 03:23:53 56° E 03:28:51 10° S visible
30 Jun 4.9 02:42:12 10° NE 02:46:19 24° E 02:50:25 10° SSE visible
30 Jun 3.7 04:20:42 10° N 04:25:21 38° WNW 04:30:00 10° SW visible
